sat.trackr.live / text

‹ back to catalog

GONETS-M 20

NORAD 47227 · 2020-091A

PAYLOAD ACTIVE UNKNOWN

§ Identity

Operator
Country
CIS
Launch date
2020-12-03
Launch site
PLMSC
Launch vehicle
Mass (kg)
RCS (m²)

External: N2YO · Heavens-Above · Gunter

§ Orbital elements

Epoch: 2026-05-25T03:28:43.514112Z

Period
115.86 min
Inclination
82.5036°
Eccentricity
0.0020201
Mean motion
12.42892971 rev/d
Perigee alt
1,478.5 km
Apogee alt
1,510.3 km
Semi-major
7,872.5 km
B*
2.8149e-4
RAAN
316.7634°
Arg perigee
229.0375°
Mean anomaly
130.8957°
Rev number
24,821

§ Raw data

GONETS-M 201 47227U 20091A   26145.14494808  .00000049  00000+0  28149-3 0  99992 47227  82.5036 316.7634 0020201 229.0375 130.8957 12.42892971248216

JSON: /api/v1/satellites/47227 · /tle

For live sub-satellite position, see the globe view (requires WebGL).

§ Visibility from observer

Set your observer location to see the next 7 days of passes ≥ 10°. The values pass through the URL so the page stays shareable.

No JS? Fill the form by hand. The geolocation button needs JavaScript.

§ Radio — SatNOGS DB

ModeDescriptionDownlinkUplink
FM UHF Unknown 388.687 MHz
FM UHF Unknown 388.787 MHz
FM UHF Unknown 262.910 MHz

3 transmitters · refreshed weekly from db.satnogs.org